Location: Dana
(41.8364°N, 106.7042°W)
Time: 12:07:06
(UTC+00:00)

Injun/Solrad 3 - Pass Details

Date: 18 May 2026
Orbit: 867 x 989 km, 66.8° (Epoch: 11 June)

Event Time Altitude Azimuth Distance (km) Brightness Sun altitude
Rises 07:49:07 0° 323° (NW) 3,692 11.6 -27.7°
Reaches altitude 10° 07:51:50 10° 316° (NW) 2,748 10.7 -27.6°
Enters shadow 07:56:57 37° 266° (W) 1,479 8.7 -27.3°
Maximum altitude 07:57:43 39° 250° (WSW) 1,446 - -27.3°
Drops below altitude 10° 08:03:35 10° 184° (S) 2,730 - -27.0°
Sets 08:06:18 0° 176° (S) 3,666 - -26.9°
